Regional Weather Roundup
Issued by NWS

Home | Current Version | Previous Version | Graphics & Text | Print | Product List | Glossary On
Versions: 1 2 3 4 5 6 7 8 9 10 11 12 13 14 15 16 17 18 19 20 21 22 23 24 25 26 27 28 29 30 31 32 33 34 35 36 37 38 39 40 41 42 43 44 45 46 47 48 49 50
170
ASUS43 KOAX 252102
RWRNE

WEATHER ROUNDUP FOR NEBRASKA
NATIONAL WEATHER SERVICE OMAHA NE
400 PM CDT THU AUG 25 2016

NOTES: SATELLITE DATA IS BEING USED TO AUGMENT CLOUD COVER ABOVE
       12000 FEET.
       "FAIR" INDICATES FEW OR NO CLOUDS BELOW 12,000 FEET WITH NO
       SIGNIFICANT WEATHER AND/OR OBSTRUCTIONS TO VISIBILITY.

  * THESE STATIONS DO NOT REPORT WEATHER SUCH AS RAIN...SNOW OR FOG.

NEZ001>004-019>022-054>056-252200-
NEBRASKA PANHANDLE

CITY           SKY/WX    TMP DP  RH WIND       PRES   REMARKS
SCOTTSBLUFF    PTSUNNY   71  46  40 E9        30.24F
ALLIANCE       MOSUNNY   67  44  43 MISG      30.24F
CHADRON        PTSUNNY   68  48  48 CALM      30.24F
KIMBALL        MOSUNNY   71  44  37 SE14      30.25S
SIDNEY         SUNNY     73  42  32 E8        30.23F
$$

NEZ057>060-069>072-079>082-252200-
SOUTHWEST NEBRASKA

CITY           SKY/WX    TMP DP  RH WIND       PRES   REMARKS
NORTH PLATTE   SUNNY     79  50  36 SE5       30.18F
IMPERIAL       SUNNY     76  43  30 CALM      30.18F
LEXINGTON      SUNNY     77  47  34 NE7       30.17F
MCCOOK         SUNNY     78  50  37 E9        30.17F
OGALLALA       SUNNY     76  41  28 E6        30.20F
$$

NEZ005>010-023>029-035>040-094-252200-
NORTH CENTRAL NEBRASKA

CITY           SKY/WX    TMP DP  RH WIND       PRES   REMARKS
VALENTINE      MOSUNNY   73  46  38 N14       30.21F
AINSWORTH      SUNNY     71  49  45 N7        30.21F
BROKEN BOW     SUNNY     76  50  40 N6        30.18F
O`NEILL        SUNNY     75  47  36 NW7       30.19S
ORD            SUNNY     76  50  40 MISG      30.16F
THEDFORD       SUNNY     75  47  37 N3        30.21F
$$

NEZ041-046>049-061>064-073>077-083>087-252200-
SOUTH CENTRAL NEBRASKA

CITY           SKY/WX    TMP DP  RH WIND       PRES   REMARKS
GRAND ISLAND   SUNNY     76  54  46 NE9       30.16F
AURORA         SUNNY     76  56  50 NE8       30.16S
HASTINGS       SUNNY     77  56  48 NE10      30.16F
HEBRON         PTSUNNY   74  59  59 E7        30.14F
HOLDREGE       MOSUNNY   73  53  48 N7        30.17S
KEARNEY *      MOSUNNY   75  54  46 N10       30.15F
YORK           PTSUNNY   73  59  60 NE6       30.15F
$$

NEZ011>018-030>034-042>045-252200-
NORTHEAST NEBRASKA

CITY           SKY/WX    TMP DP  RH WIND       PRES   REMARKS
NORFOLK        SUNNY     74  54  49 N6        30.16F
ALBION         MOSUNNY   73  55  51 N7        30.17F
BLAIR          PTSUNNY   76  60  59 NW5       30.13F
FREMONT        MOSUNNY   75  58  55 N5        30.14F
TEKAMAH        MOSUNNY   76  60  57 N8        30.13S
WAYNE          SUNNY     73  57  57 N7        30.16F
$$

NEZ050>053-065>068-078-088>093-252200-
SOUTHEAST NEBRASKA

CITY           SKY/WX    TMP DP  RH WIND       PRES   REMARKS
LINCOLN        MOSUNNY   77  60  55 NE9       30.14F
OMAHA EPPLEY   PTSUNNY   77  59  53 N7        30.12F
BEATRICE       CLOUDY    75  61  61 N9        30.13F
FALLS CITY     CLOUDY    77  62  59 N9        30.10F
NEBRASKA CITY  PTSUNNY   73  60  65 NE3       30.13S
PLATTSMOUTH    CLOUDY    75  61  60 NE6       30.13S
$$

NEZ044-045-051>053-067-252200-
OMAHA AREA

CITY           SKY/WX    TMP DP  RH WIND       PRES   REMARKS
OMAHA EPPLEY   PTSUNNY   77  59  53 N7        30.12F
BLAIR          PTSUNNY   76  60  59 NW5       30.13F
FREMONT        MOSUNNY   75  58  55 N5        30.14F
MILLARD        PTSUNNY   76  59  54 N5        30.12F
OFFUTT AFB     PTSUNNY   76  59  55 NE5       30.12S
PLATTSMOUTH    CLOUDY    75  61  60 NE6       30.13S
WAHOO          FAIR      76  60  58 N6        30.13F
$$




USA.gov is the U.S. government's official web portal to all federal, state and local government web resources and services.